TUI6AV EDDV-LEJR

Flight info

Callsign TUI6AV
Flight time 3h 2m
Altitude 37000
Route VAXEV2F VAXEV Z718 MAWEQ Y348 DOMEG DCT LNO DCT RASCA DCT FAMEN DCT AHVEC UN857 DISAK DCT ARKIP DCT ARNAV DCT LMG DCT UVELI DCT OSMOB DCT ARVID DCT PPN DCT NOLSA N857 MOLIN DCT HIJ
Aircraft B38M/M-SDE1FGHILORVWXY/HB1

Departure

Time 2026-05-05 10:29
Airport Hannover Airport (EDDV)

Arrival

Time 2026-05-05 13:32
Airport Jerez Airport (LEJR)
Time Latitude Longitude Altitude Speed Heading
2026-05-05 09:40 52.45803 9.69889 181 ft 0 kts 51°
2026-05-05 10:17 52.45800 9.69885 181 ft 0 kts 51°
2026-05-05 10:19 52.45796 9.69875 181 ft 2 kts 51°
2026-05-05 10:20 52.45784 9.69854 181 ft 3 kts 39°
2026-05-05 10:20 52.45768 9.69840 181 ft 3 kts
2026-05-05 10:20 52.45750 9.69838 181 ft 3 kts
2026-05-05 10:20 52.45730 9.69837 181 ft 3 kts
2026-05-05 10:21 52.45711 9.69835 181 ft 3 kts
2026-05-05 10:21 52.45692 9.69828 181 ft 3 kts 28°
2026-05-05 10:21 52.45678 9.69809 181 ft 3 kts 60°
2026-05-05 10:21 52.45673 9.69780 181 ft 3 kts 91°
2026-05-05 10:22 52.45673 9.69748 181 ft 3 kts 92°
2026-05-05 10:22 52.45673 9.69742 181 ft 2 kts 92°
2026-05-05 10:24 52.45673 9.69743 181 ft 0 kts 92°
2026-05-05 10:24 52.45673 9.69757 181 ft 3 kts 92°
2026-05-05 10:24 52.45661 9.69803 181 ft 6 kts 131°
2026-05-05 10:24 52.45621 9.69836 181 ft 7 kts 150°
2026-05-05 10:25 52.45600 9.69909 181 ft 8 kts 92°
2026-05-05 10:25 52.45598 9.70002 181 ft 9 kts 92°
2026-05-05 10:25 52.45595 9.70106 181 ft 10 kts 93°
2026-05-05 10:25 52.45591 9.70220 181 ft 10 kts 92°
2026-05-05 10:26 52.45588 9.70343 181 ft 11 kts 92°
2026-05-05 10:26 52.45584 9.70476 181 ft 12 kts 92°
2026-05-05 10:26 52.45580 9.70619 181 ft 13 kts 92°
2026-05-05 10:26 52.45576 9.70769 181 ft 14 kts 92°
2026-05-05 10:27 52.45571 9.70929 181 ft 14 kts 92°
2026-05-05 10:27 52.45537 9.71079 181 ft 14 kts 140°
2026-05-05 10:27 52.45462 9.71103 184 ft 9 kts 182°
2026-05-05 10:27 52.45418 9.71100 185 ft 4 kts 182°
2026-05-05 10:28 52.45403 9.71083 187 ft 1 kts 250°
2026-05-05 10:28 52.45404 9.71075 191 ft 0 kts 272°
2026-05-05 10:28 52.45410 9.70823 195 ft 60 kts 272°
2026-05-05 10:29 52.45440 9.69715 184 ft 131 kts 272°
2026-05-05 10:29 52.45492 9.67937 370 ft 170 kts 274°
2026-05-05 10:29 52.45536 9.65972 1136 ft 174 kts 274°
2026-05-05 10:29 52.45592 9.63994 1837 ft 180 kts 274°
2026-05-05 10:30 52.45654 9.61825 2145 ft 203 kts 273°
2026-05-05 10:30 52.45725 9.59366 2600 ft 221 kts 272°
2026-05-05 10:30 52.45797 9.56904 3738 ft 214 kts 271°
2026-05-05 10:30 52.45869 9.54448 4718 ft 217 kts 271°
2026-05-05 10:31 52.45941 9.51954 5677 ft 220 kts 271°
2026-05-05 10:31 52.45750 9.49410 6384 ft 234 kts 250°
2026-05-05 10:31 52.45215 9.46809 6835 ft 254 kts 251°
2026-05-05 10:31 52.44637 9.43972 7421 ft 269 kts 251°
2026-05-05 10:32 52.44038 9.41061 8367 ft 271 kts 251°
2026-05-05 10:32 52.43423 9.38097 9195 ft 276 kts 250°
2026-05-05 10:32 52.42803 9.35112 9984 ft 279 kts 250°
2026-05-05 10:32 52.42159 9.32026 10431 ft 294 kts 250°
2026-05-05 10:33 52.41710 9.29871 10613 ft 307 kts 250°
2026-05-05 10:33 52.40998 9.26467 10984 ft 322 kts 250°
2026-05-05 10:33 52.40319 9.22907 11519 ft 331 kts 259°
2026-05-05 10:33 52.40094 9.19160 12260 ft 333 kts 264°
2026-05-05 10:34 52.39900 9.15349 12932 ft 337 kts 264°
2026-05-05 10:34 52.39707 9.11510 13637 ft 341 kts 264°
2026-05-05 10:34 52.39277 9.07694 14242 ft 343 kts 249°
2026-05-05 10:34 52.38401 9.04043 14856 ft 347 kts 249°
2026-05-05 10:35 52.37528 9.00339 15473 ft 350 kts 249°
2026-05-05 10:35 52.36639 8.96614 16097 ft 353 kts 249°
2026-05-05 10:35 52.35736 8.92855 16705 ft 357 kts 249°
2026-05-05 10:35 52.34821 8.89057 17304 ft 360 kts 249°
2026-05-05 10:36 52.33897 8.85236 17876 ft 364 kts 249°
2026-05-05 10:36 52.32959 8.81361 18412 ft 367 kts 249°
2026-05-05 10:36 52.32016 8.77475 18913 ft 369 kts 249°
2026-05-05 10:36 52.31064 8.73560 19457 ft 371 kts 248°
2026-05-05 10:37 52.30121 8.69684 19960 ft 373 kts 249°
2026-05-05 10:37 52.29158 8.65738 20488 ft 374 kts 248°
2026-05-05 10:37 52.28193 8.61785 21001 ft 376 kts 248°
2026-05-05 10:37 52.26997 8.57988 21518 ft 378 kts 233°
2026-05-05 10:38 52.25270 8.54728 22052 ft 380 kts 230°
2026-05-05 10:38 52.23516 8.51487 22522 ft 382 kts 230°
2026-05-05 10:38 52.21742 8.48254 23028 ft 384 kts 229°
2026-05-05 10:38 52.19942 8.45005 23526 ft 386 kts 229°
2026-05-05 10:39 52.18131 8.41755 23945 ft 388 kts 229°
2026-05-05 10:39 52.16312 8.38500 24378 ft 389 kts 229°
2026-05-05 10:39 52.14484 8.35232 24808 ft 391 kts 229°
2026-05-05 10:39 52.12649 8.31959 25224 ft 392 kts 229°
2026-05-05 10:40 52.10828 8.28716 25663 ft 394 kts 229°
2026-05-05 10:40 52.08979 8.25424 26096 ft 395 kts 229°
2026-05-05 10:40 52.07112 8.22107 26511 ft 397 kts 229°
2026-05-05 10:40 52.05246 8.18796 26909 ft 399 kts 229°
2026-05-05 10:41 52.03368 8.15468 27316 ft 400 kts 229°
2026-05-05 10:41 52.01474 8.12116 27685 ft 402 kts 229°
2026-05-05 10:41 51.99577 8.08762 28053 ft 404 kts 229°
2026-05-05 10:41 51.97670 8.05398 28409 ft 406 kts 228°
2026-05-05 10:42 51.93829 7.98631 29111 ft 409 kts 228°
2026-05-05 10:42 51.91896 7.95234 29444 ft 411 kts 228°
2026-05-05 10:42 51.89955 7.91825 29782 ft 413 kts 228°
2026-05-05 10:43 51.87999 7.88398 30102 ft 414 kts 228°
2026-05-05 10:43 51.86036 7.84961 30377 ft 416 kts 228°
2026-05-05 10:43 51.84097 7.81571 30685 ft 416 kts 228°
2026-05-05 10:43 51.82128 7.78134 30968 ft 417 kts 227°
2026-05-05 10:44 51.80154 7.74692 31262 ft 418 kts 227°
2026-05-05 10:44 51.78182 7.71258 31644 ft 416 kts 227°
2026-05-05 10:44 51.76214 7.67836 32081 ft 413 kts 227°
2026-05-05 10:44 51.74260 7.64441 32508 ft 411 kts 227°
2026-05-05 10:45 51.72323 7.61080 32942 ft 408 kts 227°
2026-05-05 10:45 51.70398 7.57745 33358 ft 405 kts 227°
2026-05-05 10:45 51.68475 7.54412 33773 ft 403 kts 227°
2026-05-05 10:45 51.66568 7.51114 34128 ft 400 kts 227°
2026-05-05 10:46 51.64671 7.47835 34368 ft 401 kts 227°
2026-05-05 10:46 51.62767 7.44548 34585 ft 402 kts 227°
2026-05-05 10:46 51.60851 7.41246 34784 ft 403 kts 227°
2026-05-05 10:46 51.58958 7.37986 34999 ft 404 kts 227°
2026-05-05 10:47 51.57036 7.34682 35197 ft 405 kts 227°
2026-05-05 10:47 51.55082 7.31326 35398 ft 406 kts 227°
2026-05-05 10:47 51.53178 7.28062 35592 ft 407 kts 227°
2026-05-05 10:47 51.51240 7.24744 35788 ft 407 kts 227°
2026-05-05 10:48 51.49297 7.21422 36005 ft 408 kts 227°
2026-05-05 10:48 51.47353 7.18102 36239 ft 409 kts 227°
2026-05-05 10:48 51.45400 7.14770 36428 ft 411 kts 227°
2026-05-05 10:48 51.43439 7.11428 36646 ft 411 kts 227°
2026-05-05 10:49 51.41477 7.08090 36832 ft 412 kts 227°
2026-05-05 10:49 51.37532 7.01395 36872 ft 412 kts 227°
2026-05-05 10:50 51.33598 6.94733 36890 ft 412 kts 227°
2026-05-05 10:50 51.29661 6.88088 36881 ft 411 kts 226°
2026-05-05 10:51 51.25716 6.81444 36885 ft 412 kts 226°
2026-05-05 10:51 51.21799 6.74865 36884 ft 412 kts 226°
2026-05-05 10:52 51.17822 6.68203 36883 ft 412 kts 226°
2026-05-05 10:52 51.13891 6.61635 36880 ft 412 kts 226°
2026-05-05 10:53 51.09931 6.55038 36881 ft 412 kts 226°
2026-05-05 10:53 51.05957 6.48433 36879 ft 412 kts 226°
2026-05-05 10:54 51.01986 6.41852 36876 ft 412 kts 225°
2026-05-05 10:54 50.98010 6.35279 36878 ft 413 kts 225°
2026-05-05 10:55 50.94054 6.28756 36879 ft 413 kts 225°
2026-05-05 10:55 50.90071 6.22207 36889 ft 413 kts 225°
2026-05-05 10:56 50.86077 6.15657 36881 ft 413 kts 225°
2026-05-05 10:56 50.82079 6.09117 36886 ft 413 kts 225°
2026-05-05 10:57 50.78073 6.02582 36877 ft 413 kts 225°
2026-05-05 10:57 50.74065 5.96060 36877 ft 414 kts 225°
2026-05-05 10:58 50.70049 5.89542 36875 ft 414 kts 225°
2026-05-05 10:58 50.66050 5.83065 36874 ft 415 kts 225°
2026-05-05 10:59 50.62018 5.76551 36880 ft 415 kts 224°
2026-05-05 10:59 50.58063 5.69913 36875 ft 416 kts 230°
2026-05-05 11:00 50.54419 5.62810 36875 ft 417 kts 229°
2026-05-05 11:00 50.50724 5.55770 36887 ft 417 kts 229°
2026-05-05 11:01 50.47035 5.48785 36882 ft 417 kts 229°
2026-05-05 11:01 50.43297 5.41728 36870 ft 417 kts 229°
2026-05-05 11:02 50.39606 5.34777 36880 ft 418 kts 228°
2026-05-05 11:02 50.35877 5.27775 36877 ft 419 kts 228°
2026-05-05 11:03 50.32135 5.20768 36880 ft 419 kts 228°
2026-05-05 11:03 50.28380 5.13756 36876 ft 420 kts 228°
2026-05-05 11:04 50.24646 5.06802 36873 ft 420 kts 228°
2026-05-05 11:04 50.20878 4.99801 36880 ft 421 kts 228°
2026-05-05 11:05 50.17103 4.92806 36876 ft 421 kts 228°
2026-05-05 11:05 50.13316 4.85793 36879 ft 422 kts 228°
2026-05-05 11:06 50.09555 4.78838 36877 ft 423 kts 228°
2026-05-05 11:06 50.05758 4.71834 36877 ft 423 kts 227°
2026-05-05 11:07 50.01952 4.64833 36875 ft 424 kts 227°
2026-05-05 11:07 49.98129 4.57821 36877 ft 424 kts 226°
2026-05-05 11:08 49.94081 4.51239 36878 ft 424 kts 224°
2026-05-05 11:08 49.90000 4.44596 36863 ft 424 kts 224°
2026-05-05 11:09 49.85937 4.37979 36869 ft 425 kts 224°
2026-05-05 11:09 49.81852 4.31342 36869 ft 426 kts 224°
2026-05-05 11:10 49.77747 4.24689 36866 ft 427 kts 224°
2026-05-05 11:10 49.73660 4.18082 36865 ft 427 kts 224°
2026-05-05 11:11 49.69533 4.11429 36863 ft 427 kts 224°
2026-05-05 11:11 49.65409 4.04798 36852 ft 428 kts 224°
2026-05-05 11:12 49.61276 3.98170 36861 ft 429 kts 224°
2026-05-05 11:12 49.57157 3.91582 36859 ft 429 kts 224°
2026-05-05 11:13 49.53001 3.84952 36860 ft 430 kts 224°
2026-05-05 11:13 49.48865 3.78370 36854 ft 430 kts 224°
2026-05-05 11:14 49.44694 3.71750 36864 ft 431 kts 224°
2026-05-05 11:14 49.40522 3.65146 36851 ft 430 kts 224°
2026-05-05 11:15 49.36365 3.58582 36857 ft 431 kts 224°
2026-05-05 11:15 49.32164 3.51967 36848 ft 431 kts 224°
2026-05-05 11:16 49.27988 3.45408 36865 ft 432 kts 224°
2026-05-05 11:16 49.23791 3.38833 36819 ft 431 kts 224°
2026-05-05 11:17 49.19586 3.32261 36851 ft 433 kts 223°
2026-05-05 11:17 49.15368 3.25688 36848 ft 433 kts 223°
2026-05-05 11:18 49.11142 3.19118 36846 ft 433 kts 223°
2026-05-05 11:18 49.06909 3.12556 36849 ft 434 kts 223°
2026-05-05 11:19 49.02689 3.06029 36847 ft 434 kts 223°
2026-05-05 11:19 48.98442 2.99478 36841 ft 435 kts 223°
2026-05-05 11:20 48.94181 2.92921 36849 ft 436 kts 223°
2026-05-05 11:20 48.89908 2.86361 36850 ft 437 kts 223°
2026-05-05 11:21 48.85648 2.79836 36846 ft 437 kts 223°
2026-05-05 11:21 48.81503 2.73066 36824 ft 440 kts 234°
2026-05-05 11:22 48.78630 2.66683 36825 ft 441 kts 233°
2026-05-05 11:22 48.75135 2.59022 36854 ft 441 kts 233°
2026-05-05 11:23 48.71640 2.51360 36875 ft 442 kts 233°
2026-05-05 11:23 48.68164 2.43761 36842 ft 441 kts 233°
2026-05-05 11:24 48.64663 2.36126 36854 ft 442 kts 233°
2026-05-05 11:24 48.61151 2.28492 36842 ft 442 kts 233°
2026-05-05 11:25 48.57236 2.21396 36834 ft 435 kts 214°
2026-05-05 11:25 48.54654 2.19195 36855 ft 432 kts 199°
2026-05-05 11:25 48.51772 2.17881 36846 ft 433 kts 194°
2026-05-05 11:26 48.45896 2.15722 36830 ft 435 kts 192°
2026-05-05 11:26 48.39981 2.13750 36827 ft 435 kts 191°
2026-05-05 11:27 48.34038 2.11831 36821 ft 436 kts 191°
2026-05-05 11:27 48.28114 2.10338 36802 ft 434 kts 177°
2026-05-05 11:28 48.22110 2.11392 36808 ft 435 kts 173°
2026-05-05 11:28 48.16099 2.12594 36816 ft 436 kts 172°
2026-05-05 11:28 48.13084 2.12980 36808 ft 435 kts 184°
2026-05-05 11:29 48.10083 2.12441 36830 ft 435 kts 186°
2026-05-05 11:29 48.04060 2.11369 36834 ft 436 kts 187°
2026-05-05 11:30 47.98064 2.10236 36833 ft 436 kts 187°
2026-05-05 11:30 47.92037 2.09086 36833 ft 436 kts 187°
2026-05-05 11:31 47.86016 2.07938 36826 ft 436 kts 187°
2026-05-05 11:31 47.79993 2.06793 36820 ft 436 kts 187°
2026-05-05 11:32 47.73998 2.05655 36824 ft 436 kts 187°
2026-05-05 11:32 47.67969 2.04514 36826 ft 436 kts 187°
2026-05-05 11:33 47.62071 2.02853 36837 ft 434 kts 201°
2026-05-05 11:33 47.56415 1.99598 36790 ft 436 kts 200°
2026-05-05 11:34 47.50753 1.96335 36836 ft 437 kts 200°
2026-05-05 11:34 47.45077 1.93055 36850 ft 437 kts 200°
2026-05-05 11:35 47.39428 1.89796 36867 ft 438 kts 200°
2026-05-05 11:35 47.33750 1.86529 36874 ft 438 kts 200°
2026-05-05 11:36 47.28072 1.83269 36852 ft 437 kts 200°
2026-05-05 11:36 47.22390 1.80013 36856 ft 438 kts 200°
2026-05-05 11:37 47.16702 1.76797 36860 ft 438 kts 200°
2026-05-05 11:37 47.11004 1.73586 36861 ft 438 kts 200°
2026-05-05 11:38 47.05339 1.70400 36879 ft 438 kts 200°
2026-05-05 11:38 46.99649 1.67207 36872 ft 438 kts 200°
2026-05-05 11:39 46.93946 1.64014 36891 ft 438 kts 200°
2026-05-05 11:39 46.88258 1.60837 36883 ft 437 kts 200°
2026-05-05 11:40 46.82566 1.57665 36882 ft 437 kts 200°
2026-05-05 11:40 46.76872 1.54499 36881 ft 437 kts 200°
2026-05-05 11:41 46.71217 1.51361 36878 ft 437 kts 200°
2026-05-05 11:41 46.65533 1.48215 36874 ft 437 kts 200°
2026-05-05 11:42 46.59830 1.45065 36873 ft 437 kts 200°
2026-05-05 11:42 46.54131 1.41925 36875 ft 438 kts 200°
2026-05-05 11:43 46.48462 1.38808 36881 ft 438 kts 201°
2026-05-05 11:43 46.42767 1.35684 36880 ft 438 kts 201°
2026-05-05 11:44 46.37071 1.32566 36885 ft 437 kts 201°
2026-05-05 11:44 46.31373 1.29454 36881 ft 437 kts 201°
2026-05-05 11:45 46.25667 1.26345 36889 ft 437 kts 201°
2026-05-05 11:45 46.20001 1.23264 36890 ft 438 kts 201°
2026-05-05 11:46 46.14299 1.20170 36894 ft 438 kts 201°
2026-05-05 11:46 46.08593 1.17081 36901 ft 438 kts 201°
2026-05-05 11:47 46.02879 1.13996 36909 ft 438 kts 201°
2026-05-05 11:47 45.97172 1.10920 36908 ft 438 kts 201°
2026-05-05 11:48 45.88637 1.06332 36912 ft 438 kts 201°
2026-05-05 11:48 45.82926 1.03223 36905 ft 438 kts 206°
2026-05-05 11:49 45.80363 1.00893 36903 ft 435 kts 220°
2026-05-05 11:49 45.78049 0.98171 36904 ft 437 kts 219°
2026-05-05 11:49 45.73341 0.92643 36910 ft 438 kts 219°
2026-05-05 11:50 45.68656 0.87061 36908 ft 438 kts 219°
2026-05-05 11:50 45.63987 0.81492 36913 ft 437 kts 219°
2026-05-05 11:51 45.59306 0.75922 36914 ft 437 kts 219°
2026-05-05 11:51 45.54625 0.70364 36917 ft 438 kts 219°
2026-05-05 11:52 45.49969 0.64846 36921 ft 438 kts 219°
2026-05-05 11:52 45.45287 0.59311 36925 ft 437 kts 219°
2026-05-05 11:53 45.40613 0.53798 36927 ft 437 kts 219°
2026-05-05 11:53 45.35919 0.48274 36932 ft 438 kts 219°
2026-05-05 11:54 45.31228 0.42765 36929 ft 437 kts 219°
2026-05-05 11:54 45.26528 0.37259 36931 ft 437 kts 219°
2026-05-05 11:55 45.21827 0.31762 36938 ft 438 kts 219°
2026-05-05 11:55 45.17156 0.26313 36935 ft 437 kts 219°
2026-05-05 11:56 45.12442 0.20827 36940 ft 437 kts 219°
2026-05-05 11:56 45.07742 0.15365 36944 ft 437 kts 219°
2026-05-05 11:57 45.03035 0.09912 36945 ft 437 kts 219°
2026-05-05 11:57 44.98327 0.04470 36946 ft 436 kts 219°
2026-05-05 11:58 44.93651 -0.00926 36946 ft 436 kts 219°
2026-05-05 11:58 44.88952 -0.06335 36953 ft 436 kts 219°
2026-05-05 11:59 44.84242 -0.11746 36948 ft 435 kts 219°
2026-05-05 11:59 44.79544 -0.17131 36950 ft 435 kts 219°
2026-05-05 12:00 44.74871 -0.22476 36954 ft 435 kts 219°
2026-05-05 12:00 44.70161 -0.27851 36952 ft 435 kts 219°
2026-05-05 12:01 44.65461 -0.33184 36959 ft 434 kts 217°
2026-05-05 12:01 44.60170 -0.37294 36956 ft 435 kts 209°
2026-05-05 12:02 44.54853 -0.41232 36959 ft 435 kts 208°
2026-05-05 12:02 44.49490 -0.45172 36962 ft 435 kts 208°
2026-05-05 12:03 44.44125 -0.49103 36959 ft 435 kts 208°
2026-05-05 12:03 44.38764 -0.53024 36960 ft 435 kts 208°
2026-05-05 12:04 44.33422 -0.56922 36964 ft 435 kts 208°
2026-05-05 12:04 44.28055 -0.60830 36960 ft 435 kts 208°
2026-05-05 12:05 44.22685 -0.64733 36963 ft 435 kts 208°
2026-05-05 12:05 44.17295 -0.68641 36970 ft 435 kts 208°
2026-05-05 12:06 44.11922 -0.72530 36975 ft 435 kts 208°
2026-05-05 12:06 44.06573 -0.76394 36980 ft 435 kts 208°
2026-05-05 12:07 44.01198 -0.80267 36983 ft 435 kts 209°
2026-05-05 12:07 43.95823 -0.84133 36984 ft 434 kts 209°
2026-05-05 12:08 43.90498 -0.87955 36984 ft 434 kts 209°
2026-05-05 12:08 43.85134 -0.91798 36991 ft 433 kts 209°
2026-05-05 12:09 43.79769 -0.95633 36994 ft 433 kts 209°
2026-05-05 12:09 43.74404 -0.99461 36992 ft 433 kts 209°
2026-05-05 12:10 43.69043 -1.03277 36993 ft 433 kts 209°
2026-05-05 12:10 43.63724 -1.07057 36991 ft 433 kts 209°
2026-05-05 12:11 43.58359 -1.10861 36994 ft 433 kts 209°
2026-05-05 12:11 43.53897 -1.14020 36991 ft 433 kts 209°
2026-05-05 12:12 43.47665 -1.18422 36993 ft 433 kts 209°
2026-05-05 12:12 43.43195 -1.21573 37013 ft 433 kts 209°
2026-05-05 12:13 43.37835 -1.25345 37012 ft 432 kts 209°
2026-05-05 12:13 43.32481 -1.29104 37015 ft 432 kts 209°
2026-05-05 12:14 43.27126 -1.32858 37016 ft 432 kts 209°
2026-05-05 12:14 43.21779 -1.36598 37004 ft 431 kts 209°
2026-05-05 12:15 43.16456 -1.40317 37006 ft 432 kts 209°
2026-05-05 12:15 43.11095 -1.44052 37000 ft 431 kts 209°
2026-05-05 12:16 43.05746 -1.47776 37003 ft 431 kts 209°
2026-05-05 12:16 43.00391 -1.51504 37000 ft 431 kts 209°
2026-05-05 12:17 42.95044 -1.55219 37002 ft 431 kts 209°
2026-05-05 12:17 42.89698 -1.58926 36988 ft 431 kts 209°
2026-05-05 12:18 42.84351 -1.62627 36981 ft 431 kts 209°
2026-05-05 12:18 42.79034 -1.66299 36992 ft 431 kts 209°
2026-05-05 12:19 42.73678 -1.69985 36994 ft 431 kts 209°
2026-05-05 12:19 42.68301 -1.73606 36992 ft 431 kts 209°
2026-05-05 12:20 42.62927 -1.77225 36992 ft 430 kts 209°
2026-05-05 12:20 42.57593 -1.80809 36985 ft 430 kts 209°
2026-05-05 12:21 42.52216 -1.84417 36984 ft 430 kts 209°
2026-05-05 12:21 42.46850 -1.88009 36978 ft 430 kts 209°
2026-05-05 12:22 42.41512 -1.91575 36976 ft 429 kts 209°
2026-05-05 12:22 42.36143 -1.95152 36978 ft 429 kts 209°
2026-05-05 12:23 42.30782 -1.98724 36974 ft 429 kts 209°
2026-05-05 12:23 42.25457 -2.02259 36973 ft 429 kts 209°
2026-05-05 12:24 42.20103 -2.05800 36974 ft 428 kts 209°
2026-05-05 12:24 42.14749 -2.09338 36973 ft 428 kts 209°
2026-05-05 12:25 42.09390 -2.12874 36966 ft 428 kts 209°
2026-05-05 12:25 42.04043 -2.16396 36963 ft 427 kts 209°
2026-05-05 12:26 41.98724 -2.19893 36967 ft 427 kts 209°
2026-05-05 12:26 41.93382 -2.23397 36964 ft 427 kts 209°
2026-05-05 12:27 41.88038 -2.26897 36963 ft 427 kts 209°
2026-05-05 12:27 41.82729 -2.30368 36956 ft 426 kts 209°
2026-05-05 12:28 41.77385 -2.33854 36959 ft 426 kts 209°
2026-05-05 12:28 41.72049 -2.37330 36959 ft 426 kts 209°
2026-05-05 12:29 41.66705 -2.40804 36961 ft 426 kts 209°
2026-05-05 12:29 41.61392 -2.44251 36961 ft 426 kts 209°
2026-05-05 12:30 41.56658 -2.47317 36965 ft 426 kts 209°
2026-05-05 12:30 41.51320 -2.50770 36966 ft 426 kts 210°
2026-05-05 12:31 41.45992 -2.54207 36973 ft 425 kts 210°
2026-05-05 12:31 41.40671 -2.57635 36973 ft 424 kts 210°
2026-05-05 12:32 41.35357 -2.61051 36978 ft 424 kts 210°
2026-05-05 12:32 41.30273 -2.64922 36988 ft 418 kts 218°
2026-05-05 12:33 41.25498 -2.69305 36982 ft 419 kts 218°
2026-05-05 12:33 41.20692 -2.73723 36979 ft 419 kts 218°
2026-05-05 12:34 41.15924 -2.78101 36982 ft 418 kts 218°
2026-05-05 12:34 41.11135 -2.82492 36977 ft 418 kts 218°
2026-05-05 12:35 41.06351 -2.86869 36979 ft 418 kts 218°
2026-05-05 12:35 41.01352 -2.90868 36980 ft 420 kts 214°
2026-05-05 12:36 40.96355 -2.94807 36978 ft 419 kts 215°
2026-05-05 12:36 40.91347 -2.98769 36981 ft 419 kts 215°
2026-05-05 12:37 40.86345 -3.02723 36982 ft 419 kts 215°
2026-05-05 12:37 40.81338 -3.06674 36983 ft 419 kts 215°
2026-05-05 12:38 40.76326 -3.10621 36971 ft 419 kts 215°
2026-05-05 12:38 40.71320 -3.14558 36974 ft 419 kts 215°
2026-05-05 12:39 40.66320 -3.18482 36966 ft 418 kts 215°
2026-05-05 12:39 40.61314 -3.22404 36968 ft 418 kts 215°
2026-05-05 12:40 40.56326 -3.26305 36960 ft 418 kts 215°
2026-05-05 12:40 40.51328 -3.30207 36967 ft 418 kts 215°
2026-05-05 12:41 40.46319 -3.34111 36965 ft 417 kts 215°
2026-05-05 12:41 40.41361 -3.37968 36965 ft 417 kts 215°
2026-05-05 12:42 40.36374 -3.41841 36966 ft 416 kts 215°
2026-05-05 12:42 40.31385 -3.45710 36967 ft 416 kts 215°
2026-05-05 12:43 40.26402 -3.49567 36989 ft 416 kts 216°
2026-05-05 12:43 40.21410 -3.53423 36983 ft 416 kts 216°
2026-05-05 12:44 40.16415 -3.57276 36988 ft 416 kts 216°
2026-05-05 12:44 40.11453 -3.61096 36985 ft 416 kts 216°
2026-05-05 12:45 40.06468 -3.64928 36980 ft 416 kts 216°
2026-05-05 12:45 40.01468 -3.68765 36984 ft 416 kts 216°
2026-05-05 12:46 39.96479 -3.72586 36981 ft 415 kts 216°
2026-05-05 12:46 39.91499 -3.76395 36977 ft 415 kts 216°
2026-05-05 12:47 39.86522 -3.80194 36986 ft 414 kts 216°
2026-05-05 12:47 39.81583 -3.83958 36967 ft 413 kts 216°
2026-05-05 12:48 39.76621 -3.87733 36979 ft 413 kts 216°
2026-05-05 12:48 39.71652 -3.91507 36976 ft 413 kts 216°
2026-05-05 12:49 39.66687 -3.95272 36978 ft 413 kts 216°
2026-05-05 12:49 39.61732 -3.99023 36976 ft 412 kts 216°
2026-05-05 12:50 39.56777 -4.02768 36972 ft 412 kts 216°
2026-05-05 12:50 39.51825 -4.06503 36981 ft 411 kts 216°
2026-05-05 12:51 39.46891 -4.10220 36980 ft 410 kts 216°
2026-05-05 12:51 39.41961 -4.13927 36998 ft 409 kts 217°
2026-05-05 12:52 39.37070 -4.17597 36976 ft 408 kts 217°
2026-05-05 12:52 39.32167 -4.21273 36991 ft 407 kts 217°
2026-05-05 12:53 39.27267 -4.24939 36989 ft 407 kts 217°
2026-05-05 12:53 39.22368 -4.28599 36990 ft 407 kts 217°
2026-05-05 12:54 39.15017 -4.34079 36998 ft 406 kts 216°
2026-05-05 12:55 39.10117 -4.37726 36997 ft 406 kts 217°
2026-05-05 12:55 39.05225 -4.41359 36998 ft 406 kts 217°
2026-05-05 12:56 39.00367 -4.44962 36996 ft 406 kts 217°
2026-05-05 12:56 38.95467 -4.48590 36999 ft 406 kts 217°
2026-05-05 12:57 38.90575 -4.52206 36994 ft 406 kts 217°
2026-05-05 12:57 38.85685 -4.55815 37003 ft 405 kts 217°
2026-05-05 12:58 38.80787 -4.59425 37014 ft 405 kts 217°
2026-05-05 12:58 38.75893 -4.63024 37009 ft 406 kts 217°
2026-05-05 12:59 38.71026 -4.66599 37009 ft 405 kts 217°
2026-05-05 12:59 38.66127 -4.70192 37004 ft 406 kts 217°
2026-05-05 13:00 38.59575 -4.74988 37006 ft 405 kts 217°
2026-05-05 13:01 38.49805 -4.82120 37008 ft 405 kts 217°
2026-05-05 13:01 38.44905 -4.85689 37014 ft 405 kts 217°
2026-05-05 13:02 38.40004 -4.89253 37003 ft 405 kts 217°
2026-05-05 13:02 38.35097 -4.92816 36712 ft 405 kts 217°
2026-05-05 13:03 38.32651 -4.94590 36252 ft 403 kts 217°
2026-05-05 13:03 38.30218 -4.96353 35795 ft 402 kts 217°
2026-05-05 13:03 38.27792 -4.98110 35350 ft 401 kts 217°
2026-05-05 13:03 38.25364 -4.99866 34903 ft 401 kts 217°
2026-05-05 13:04 38.22974 -5.01593 34484 ft 400 kts 217°
2026-05-05 13:04 38.20516 -5.03369 34050 ft 400 kts 217°
2026-05-05 13:04 38.18130 -5.05091 33568 ft 400 kts 217°
2026-05-05 13:04 38.15626 -5.06704 33077 ft 408 kts 210°
2026-05-05 13:05 38.13007 -5.08123 32610 ft 410 kts 211°
2026-05-05 13:05 38.10388 -5.09587 32160 ft 411 kts 212°
2026-05-05 13:05 38.07762 -5.11072 31706 ft 413 kts 212°
2026-05-05 13:05 38.05136 -5.12565 31260 ft 415 kts 212°
2026-05-05 13:06 38.02493 -5.14070 30816 ft 417 kts 212°
2026-05-05 13:06 37.99827 -5.15588 30375 ft 419 kts 212°
2026-05-05 13:06 37.97161 -5.17105 29927 ft 421 kts 211°
2026-05-05 13:06 37.94511 -5.18612 29417 ft 423 kts 211°
2026-05-05 13:07 37.91814 -5.20144 28898 ft 426 kts 211°
2026-05-05 13:07 37.89101 -5.21684 28407 ft 429 kts 211°
2026-05-05 13:07 37.86359 -5.23240 27918 ft 432 kts 210°
2026-05-05 13:07 37.83608 -5.24800 27431 ft 434 kts 210°
2026-05-05 13:08 37.80848 -5.26363 26945 ft 438 kts 210°
2026-05-05 13:08 37.78058 -5.27941 26476 ft 441 kts 210°
2026-05-05 13:08 37.75247 -5.29531 26010 ft 443 kts 210°
2026-05-05 13:08 37.72421 -5.31127 25548 ft 446 kts 209°
2026-05-05 13:09 37.69588 -5.32727 25095 ft 447 kts 209°
2026-05-05 13:09 37.66747 -5.34329 24654 ft 446 kts 209°
2026-05-05 13:09 37.63912 -5.35926 24221 ft 445 kts 208°
2026-05-05 13:09 37.61080 -5.37521 23810 ft 444 kts 208°
2026-05-05 13:10 37.58262 -5.39106 23326 ft 443 kts 208°
2026-05-05 13:10 37.55447 -5.40689 22832 ft 441 kts 208°
2026-05-05 13:10 37.52649 -5.42261 22337 ft 439 kts 208°
2026-05-05 13:10 37.49907 -5.43800 21860 ft 436 kts 208°
2026-05-05 13:11 37.47150 -5.45346 21379 ft 433 kts 208°
2026-05-05 13:11 37.44404 -5.46884 20916 ft 431 kts 208°
2026-05-05 13:11 37.41671 -5.48414 20485 ft 428 kts 208°
2026-05-05 13:11 37.38948 -5.49937 20053 ft 426 kts 208°
2026-05-05 13:12 37.36260 -5.51439 19631 ft 418 kts 208°
2026-05-05 13:12 37.33637 -5.52904 19226 ft 408 kts 208°
2026-05-05 13:12 37.31072 -5.54336 18817 ft 399 kts 208°
2026-05-05 13:12 37.28552 -5.55742 18410 ft 392 kts 208°
2026-05-05 13:13 37.26083 -5.57118 17962 ft 385 kts 208°
2026-05-05 13:13 37.23652 -5.58472 17495 ft 379 kts 208°
2026-05-05 13:13 37.21297 -5.59783 17055 ft 363 kts 208°
2026-05-05 13:13 37.19025 -5.61046 16623 ft 350 kts 208°
2026-05-05 13:14 37.16832 -5.62248 16201 ft 339 kts 207°
2026-05-05 13:14 37.14699 -5.63394 15770 ft 328 kts 207°
2026-05-05 13:14 37.12630 -5.64509 15349 ft 319 kts 207°
2026-05-05 13:14 37.10615 -5.65594 14979 ft 310 kts 208°
2026-05-05 13:15 37.08698 -5.66626 14618 ft 303 kts 208°
2026-05-05 13:15 37.06796 -5.67650 14280 ft 301 kts 207°
2026-05-05 13:15 37.04868 -5.68687 13943 ft 302 kts 207°
2026-05-05 13:15 37.02937 -5.69727 13575 ft 303 kts 207°
2026-05-05 13:16 37.00998 -5.70769 13189 ft 302 kts 207°
2026-05-05 13:16 36.99064 -5.71809 12823 ft 303 kts 207°
2026-05-05 13:16 36.97137 -5.72843 12541 ft 300 kts 207°
2026-05-05 13:16 36.95221 -5.73872 12255 ft 298 kts 207°
2026-05-05 13:17 36.93316 -5.74894 11983 ft 296 kts 207°
2026-05-05 13:17 36.91428 -5.75906 11710 ft 295 kts 207°
2026-05-05 13:17 36.89544 -5.76915 11452 ft 294 kts 207°
2026-05-05 13:17 36.87675 -5.77916 11186 ft 292 kts 207°
2026-05-05 13:18 36.85803 -5.78914 10921 ft 292 kts 205°
2026-05-05 13:18 36.83856 -5.79564 10662 ft 294 kts 195°
2026-05-05 13:18 36.81849 -5.80092 10407 ft 293 kts 196°
2026-05-05 13:18 36.79862 -5.80648 10145 ft 292 kts 196°
2026-05-05 13:19 36.77884 -5.81216 9894 ft 292 kts 197°
2026-05-05 13:19 36.75901 -5.81795 9560 ft 292 kts 197°
2026-05-05 13:19 36.73925 -5.82378 9257 ft 290 kts 196°
2026-05-05 13:19 36.71960 -5.82962 8949 ft 290 kts 197°
2026-05-05 13:20 36.70003 -5.83547 8649 ft 289 kts 196°
2026-05-05 13:20 36.68048 -5.84130 8346 ft 289 kts 196°
2026-05-05 13:20 36.66097 -5.84709 8033 ft 288 kts 196°
2026-05-05 13:20 36.64173 -5.85283 7750 ft 288 kts 196°
2026-05-05 13:21 36.62217 -5.85865 7437 ft 289 kts 196°
2026-05-05 13:21 36.60257 -5.86448 7162 ft 291 kts 196°
2026-05-05 13:21 36.58281 -5.87034 6873 ft 293 kts 195°
2026-05-05 13:21 36.56293 -5.87623 6593 ft 293 kts 195°
2026-05-05 13:22 36.54313 -5.88215 6293 ft 291 kts 197°
2026-05-05 13:22 36.52549 -5.89290 5998 ft 279 kts 224°
2026-05-05 13:22 36.51454 -5.91180 5703 ft 265 kts 252°
2026-05-05 13:22 36.51045 -5.93363 5443 ft 256 kts 263°
2026-05-05 13:23 36.50752 -5.95534 5201 ft 252 kts 263°
2026-05-05 13:23 36.50480 -5.97667 4951 ft 245 kts 263°
2026-05-05 13:23 36.50227 -5.99708 4675 ft 234 kts 264°
2026-05-05 13:23 36.49991 -6.01674 4406 ft 225 kts 264°
2026-05-05 13:24 36.49983 -6.03566 4155 ft 216 kts 281°
2026-05-05 13:24 36.50234 -6.05344 3930 ft 207 kts 282°
2026-05-05 13:24 36.50483 -6.07037 3854 ft 191 kts 283°
2026-05-05 13:24 36.50716 -6.08604 3875 ft 181 kts 283°
2026-05-05 13:25 36.50947 -6.10134 3873 ft 180 kts 283°
2026-05-05 13:25 36.51179 -6.11662 3873 ft 180 kts 283°
2026-05-05 13:25 36.51409 -6.13202 3835 ft 180 kts 283°
2026-05-05 13:25 36.51778 -6.14670 3712 ft 177 kts 306°
2026-05-05 13:26 36.52725 -6.15594 3619 ft 176 kts 340°
2026-05-05 13:26 36.53949 -6.15658 3555 ft 181 kts
2026-05-05 13:26 36.55180 -6.15266 3515 ft 184 kts 14°
2026-05-05 13:26 36.56390 -6.14752 3372 ft 184 kts 16°
2026-05-05 13:27 36.57589 -6.14197 3284 ft 184 kts 17°
2026-05-05 13:27 36.58781 -6.13627 3088 ft 185 kts 17°
2026-05-05 13:27 36.59975 -6.13050 2866 ft 183 kts 18°
2026-05-05 13:27 36.61136 -6.12486 2651 ft 177 kts 18°
2026-05-05 13:28 36.62253 -6.11945 2438 ft 166 kts 17°
2026-05-05 13:28 36.63309 -6.11436 2223 ft 161 kts 17°
2026-05-05 13:28 36.64346 -6.10931 2037 ft 157 kts 15°
2026-05-05 13:28 36.65352 -6.10444 1850 ft 154 kts 16°
2026-05-05 13:29 36.66340 -6.09965 1618 ft 151 kts 16°
2026-05-05 13:29 36.67316 -6.09492 1405 ft 151 kts 17°
2026-05-05 13:29 36.68301 -6.09012 1202 ft 152 kts 17°
2026-05-05 13:29 36.68688 -6.08824 1139 ft 150 kts 17°
2026-05-05 13:30 36.69507 -6.08426 962 ft 149 kts 17°
2026-05-05 13:30 36.70486 -6.07949 766 ft 152 kts 16°
2026-05-05 13:30 36.71467 -6.07479 528 ft 151 kts 17°
2026-05-05 13:31 36.72442 -6.06999 325 ft 150 kts 17°
2026-05-05 13:31 36.73413 -6.06525 132 ft 150 kts 17°
2026-05-05 13:31 36.74318 -6.06088 90 ft 113 kts 21°
2026-05-05 13:31 36.74829 -6.05836 96 ft 55 kts 21°
2026-05-05 13:32 36.75189 -6.05658 96 ft 57 kts 22°
2026-05-05 13:32 36.75392 -6.05567 95 ft 12 kts 357°
2026-05-05 13:32 36.75445 -6.05623 92 ft 12 kts 289°
2026-05-05 13:32 36.75465 -6.05729 87 ft 10 kts 251°
2026-05-05 13:33 36.75406 -6.05769 90 ft 11 kts 200°
2026-05-05 13:33 36.75328 -6.05807 88 ft 13 kts 200°
2026-05-05 13:33 36.75237 -6.05849 87 ft 14 kts 201°
2026-05-05 13:33 36.75177 -6.05879 89 ft 9 kts 202°
2026-05-05 13:34 36.75113 -6.05911 89 ft 11 kts 201°
2026-05-05 13:34 36.75037 -6.05949 88 ft 12 kts 202°
2026-05-05 13:34 36.74958 -6.05988 88 ft 10 kts 202°
2026-05-05 13:34 36.74925 -6.06036 88 ft 7 kts 266°
2026-05-05 13:35 36.74936 -6.06085 89 ft 6 kts 291°
2026-05-05 13:35 36.74951 -6.06133 90 ft 7 kts 291°
2026-05-05 13:35 36.74960 -6.06162 88 ft 1 kts 291°
2026-05-05 13:35 36.74963 -6.06173 87 ft 2 kts 291°
2026-05-05 13:36 36.74968 -6.06187 91 ft 2 kts 294°
2026-05-05 13:36 36.74981 -6.06212 89 ft 5 kts 311°
2026-05-05 13:36 36.75006 -6.06242 88 ft 4 kts 317°
2026-05-05 13:36 36.75026 -6.06266 90 ft 4 kts 317°
2026-05-05 13:37 36.75035 -6.06276 87 ft 1 kts 317°
2026-05-05 13:37 36.75036 -6.06276 87 ft 0 kts 317°